www.pogodaiklimat.ru

Погода и климат >> Архив погоды >> Туркменистан >> Атамурат


ПОГОДА в Атамурате

  • Прогноз погоды в Атамурате
  • Монитор погоды в Атамурате

АРХИВ ПОГОДЫ в Атамурате

Время (UTC), дата Ветер
(напр.,м/с)
 
Видим.   Явления Облачность Т
(С)
Тd
(С)
f
(%)
Тe
(С)
Тes
(С)
Комфортность P
(гПа)
Po
(гПа)
Тmin
(С)
Tmax
(С)
R
(мм)
R24
(мм)
S
(см)
12 17.06 С 3 20 км ясно +36.4 +13.9 26 +37 +43 очень
жарко
1005.1 978.7
15 17.06 СЗ 3 20 км ясно +33.0 +13.1 30 +34 +34 очень
жарко
1004.0 977.5 +36.6
18 17.06 С 4 10 км ясно +27.1 +14.0 45 +29 +29 жарко 1004.8 977.7 +36.6
21 17.06 С 2 10 км ясно +23.6 +15.1 59 +26 +26 жарко 1004.9 977.5
00 18.06 С 2 10 км ясно +20.8 +13.7 64 +24 +24 комфорт 1005.1 977.5
03 18.06 СЗ 2 20 км ясно +23.8 +15.5 60 +27 +32 жарко 1005.3 977.9
06 18.06 С 3 20 км ясно +29.8 +18.1 49 +34 +49 очень
душно
1005.2 978.4 +20.4
09 18.06 С 6 20 км ясно +36.4 +18.1 34 +40 +48 очень
душно
1003.4 977.2
12 18.06 С 6 20 км ясно +36.8 +17.0 31 +39 +42 очень
душно
1002.4 976.2
15 18.06 С 4 20 км ясно +34.3 +16.4 34 +37 +37 очень
душно
1003.0 976.6 +37.4
18 18.06 С 4 10 км ясно +28.0 +14.4 43 +30 +30 жарко 1004.7 977.7 +37.4
21 18.06 С 4 10 км ясно +24.4 +14.3 53 +27 +27 жарко 1005.1 977.1
00 19.06 С 2 10 км ясно +22.2 +14.0 60 +25 +25 комфорт 1005.2 977.7
03 19.06 СЗ 2 20 км ясно +24.0 +15.8 60 +27 +33 жарко 1005.1 977.7 +21.0
06 19.06 С 4 20 км ясно +34.8 +20.8 44 +42 +54 опасность
перегрева
1003.2 976.9 +21.0
09 19.06 С 7 20 км ясно +37.2 +19.0 35 +42 +47 опасность
перегрева
1002.7 976.6
12 19.06 С 8 20 км ясно +36.7 +18.9 35 +41 +42 опасность
перегрева
1002.5 976.3
15 19.06 С 7 20 км ясно +33.3 +17.7 40 +37 +37 очень
душно
1003.5 977.0 +37.7
18 19.06 С 3 10 км ясно +28.6 +15.6 45 +31 +31 жарко 1004.9 978.0 +37.7
21 19.06 С 3 10 км ясно +25.4 +14.3 50 +28 +28 жарко 1004.7 977.4
00 20.06 СЗ 1 10 км ясно +22.2 +14.0 60 +25 +25 комфорт 1005.1 977.6
03 20.06 СЗ 3 20 км ясно +24.2 +16.2 61 +28 +32 душно 1006.4 979.0 +20.8
06 20.06 СЗ 5 20 км ясно +33.4 +19.3 43 +39 +48 очень
душно
1005.5 979.0 +20.8
09 20.06 С 6 20 км ясно +36.2 +18.1 35 +40 +48 очень
душно
1004.2 978.0
12 20.06 С 6 20 км ясно +36.8 +17.4 32 +40 +43 очень
душно
1003.0 976.8
15 20.06 СЗ 3 20 км ясно +32.6 +16.9 39 +36 +36 очень
душно
1003.2 976.7 +37.1
18 20.06 С 3 10 км ясно +28.2 +14.7 44 +31 +31 душно 1003.7 976.7 +37.1
21 20.06 С 3 10 км ясно +24.8 +13.7 50 +27 +27 жарко 1004.1 976.8
00 21.06 С 1 10 км ясно +21.2 +15.5 70 +24 +24 комфорт 1004.4 976.8
03 21.06 С 4 20 км ясно +25.2 +19.0 69 +30 +34 душно 1005.1 977.8 +20.2
06 21.06 С 5 20 км ясно +33.0 +20.6 48 +40 +49 очень
душно
1004.7 978.2 +20.2
09 21.06 С 7 20 км ясно +38.0 +18.5 32 +42 +47 опасность
перегрева
1003.0 977.0
12 21.06 ЮВ 4 20 км ясно +38.8 +18.2 30 +42 +47 опасность
перегрева
1002.6 976.6
15 21.06 С 4 20 км ясно +36.0 +18.1 35 +40 +40 очень
душно
1002.8 976.6 +39.0
18 21.06 С 4 10 км ясно +30.0 +15.1 40 +32 +32 жарко 1003.8 977.0 +39.0
21 21.06 С 2 10 км ясно +26.4 +14.2 47 +29 +29 жарко 1003.1 976.6
00 22.06 С 2 10 км ясно +22.1 +14.1 60 +25 +25 комфорт 1004.5 977.0
03 22.06 СЗ 2 20 км ясно +36.2 +18.4 35 +40 +46 очень
душно
1006.2 979.0 +22.0
06 22.06 С 4 10 км 3/0
[Ci sp]
+36.6 +21.9 43 +45 +56 опасность
перегрева
1005.6 979.4 +22.0
09 22.06 С 6 20 км 3/0
[Ci sp]
+39.0 +19.3 32 +44 +51 опасность
перегрева
1005.1 979.0
12 22.06 С 6 20 км ясно +38.6 +18.6 31 +42 +45 опасность
перегрева
1004.4 978.4
15 22.06 С 4 20 км 3/0
[Ci sp]
+35.6 +17.8 35 +39 +39 очень
душно
1005.1 978.7 +39.4
18 22.06 СВ 6 10 км 3/0
[Ci sp]
+31.8 +15.9 38 +34 +34 душно 1005.4 978.7 +39.4
21 22.06 С 2 10 км 3/0
[Ci sp]
+26.6 +15.1 49 +29 +29 жарко 1006.4 979.2
00 23.06 СВ 2 10 км 3/0
[Ci sp]
+22.1 +14.1 60 +25 +25 комфорт 1008.1 980.5
03 23.06 З 3 20 км ясно +25.3 +16.8 59 +29 +33 душно 1009.2 981.8 +20.8
06 23.06 С 5 20 км ясно +33.0 +17.8 40 +37 +46 очень
душно
1008.3 981.6 +20.8
09 23.06 С 9 20 км ясно +37.0 +19.5 36 +42 +44 опасность
перегрева
1007.2 981.0
12 23.06 С 8 20 км ясно +37.2 +17.8 32 +41 +42 опасность
перегрева
1006.2 980.0
15 23.06 С 4 20 км ясно +33.7 +16.4 36 +37 +37 очень
душно
1007.1 980.6 +37.9
18 23.06 С 4 10 км ясно +28.2 +14.9 44 +31 +31 душно 1008.1 981.0 +37.9
21 23.06 С 2 10 км ясно +25.6 +14.8 51 +28 +28 жарко 1007.9 980.6
00 24.06 С 2 10 км ясно +21.8 +14.5 63 +25 +25 комфорт 1008.7 981.1
03 24.06 В 2 20 км ясно +25.0 +16.2 58 +28 +34 жарко 1009.9 982.5 +21.6
06 24.06 Ю 3 20 км ясно +32.1 +19.0 46 +37 +52 опасность
солнечного
удара
1009.7 983.0 +21.6

 

Местоположение метеостанции Атамурат (Лебапский велаят, Туркменистан): широта 37.83 долгота 65.20 высота над уровнем моря 240 м.

В архиве по умолчанию представлена погода в Атамурате за последнюю неделю. Архивные данные за месяц целиком и за предыдущие месяцы, начиная с января 2011 года, Вы можете получить, выбрав интересующий диапазон дат из раскрывающегося списка и нажав кнопку "Ввод!".


*Определитесь, кто Вы:
робот инопланетянин человек

Внимание! Время в таблицах - всемирное. Для получения местного времени необходимо прибавить поправку, которая равна 5 ч.

Смотрите также архив погоды в соседних городах и на ближайших метеорологических станциях:

Погода в Койтендаге (Дашогузский велаят, Туркменистан) (80 км)
Погода в Бурдалыке (Лебапский велаят, Туркменистан) (102 км)
Погода в Карши (Кашкадарьинская область, Узбекистан) (117 км)
Погода в Дехканабаде (Сырдарьинская область, Узбекистан) (128 км)
Погода в Гузаре (Кашкадарьинская область, Узбекистан) (128 км)
Погода в Акрабате (Узбекистан) (150 км)
Погода в Ширабаде (Сухрандарьинская область, Узбекистан) (161 км)
Погода в Минчукуре (Кашкадарьинская область, Узбекистан) (177 км)
Погода в Байсуне (Сухрандарьинская область, Узбекистан) (180 км)
Погода в Термезе (Сухрандарьинская область, Узбекистан) (194 км)

Пояснения к столбцам:

Ветер - указаны скорость ветра в м/с - средняя за 10 мин, порывы в срок и между сроками (в фигурных скобках) и направление, откуда дует ветер: С - северный, СВ - северо-восточный, В - восточный, ЮВ - юго-восточный, Ю - южный, ЮЗ - юго-западный, З - западный, СЗ - северо-западный.
Видимость - горизонтальная дальность видимости в метрах или километрах. При видимости от 1 до 10 км при отсутствии осадков обычно наблюдается дымка, при ухудшении видимости до 1 км и менее - туман. В сухую погоду видимость может ухудшаться дымом, пылью или мглою.
Явления - указаны атмосферные явления, наблюдавшиеся в срок или в последний час перед сроком; фигурными скобками обозначены явления, наблюдавшиеся между сроками (за 1-3 часа до срока); квадратными скобками обозначены град или гололедные отложения с указанием их диаметра в мм.
Облачность - указаны через наклонную черту общая и нижняя облачность в баллах и высота нижней границы облаков в метрах; квадратными скобками обозначены формы облаков: Ci - перистые, Cs - перисто-слоистые, Cc - перисто-кучевые, Ac - высококучевые, As - высокослоистые, Sc - слоисто-кучевые, Ns - слоисто-дождевые, Cu - кучевые, Cb - кучево-дождевые. Подробнее классификацию облаков см. в Атласе облаков (PDF).
T - Температура воздуха - температура, измеренная на высоте 2 м над землей.
Td - Температура точки росы - температура, при понижении до которой содержащийся в воздухе водяной пар достигнет насыщения.
f - Относительная влажность воздуха - влажноcть воздуха, измеренная на высоте 2 м над землей.
Te - Эффективная температура - температура, которую ощущает одетый по сезону человек в тени. Характеристика душности погоды. При расчете учитывается влияние влажности воздуха и скорости ветра на теплоощущения человека.
Tes - Эффективная температура на солнце - температура, которую ощущает человек, с поправкой на солнечный нагрев. Характеристика знойности погоды. Зависит от высоты солнца над горизонтом, облачности и скорости ветра. Ночью, в пасмурную погоду, а также при ветре 12 м/с и более поправка равна нулю.
P - Атмосферное давление - приведенное к уровню моря атмосферное давление.
Po - Атмосферное давление - измеренное на уровне метеостанции атмосферное давление.
Tmin - Минимальная температура - минимум температуры воздуха на высоте 2 м над землей.
Tmax - Максимальная температура - максимум температуры воздуха на высоте 2 м над землей.
R - Количество осадков - Количество выпавших осадков за период времени, мм. При наведении курсора мыши на число - период времени, за который выпало указанное количество осадков.
R24 - Количество осадков - Количество выпавших осадков за 24 часа, мм.
S - Снежный покров - Высота снежного покрова, см. При наведении курсора мыши на число - состояние снежного покрова и степень покрытия местности в баллах.